Погода в Чимишлии

Молдова     46˚31′23″N   28˚47′04″E
темп.,
°C
ветер,
м/с
пор.,
м/с
влажн.,
%
обл.,
%
осадки,
мм/ч
давл.,
гПа
погр.,
м
6 декабря, вс
вс623:00+3˚в5885100 0.0 1027412
02:00+2˚в5784100 0.0 1027375
05:00+2˚в4785100 0.0 1027378
08:00+2˚всв6879100 0.0 1028432
11:00+1˚в686999 0.0 1028435
14:00+1˚в5770100 0.0 1027562
17:00+2˚в5773100 0.0 1027884
20:00всв585799 0.0 1027488
7 декабря, пн
пн723:00−1˚всв595598 0.0 1027371
02:00−2˚всв7106195 0.0 1027351
05:00−3˚всв697067 0.0 1026362
08:00−3˚всв697183 0.0 1026437
11:00−2˚всв696597 0.0 1025547
14:00−2˚всв576698 0.0 1024617
17:00−2˚всв6975100 0.0 1024454
20:00−2˚всв71388100 0.1 1023485
8 декабря, вт
вт823:00всв81391100 0.6 1022485
02:00всв81288100 0.8 1021457
05:00всв71287100 0.0 1021479
08:00−1˚всв81285100 0.1 1021442
11:00+1˚всв7127990 0.0 1021463
14:00+1˚всв7118092 0.0 1020464
17:00всв6118799 0.0 1020502
20:00св6118599 0.0 1021416
9 декабря, ср
ср923:00−1˚св61086100 0.0 1021365
02:00−1˚св5988100 0.0 1021367
05:00−1˚св5786100 0.0 1021348
08:00−1˚св4789100 0.0 1021248
11:00+1˚св5686100 0.0 1022256
14:00+1˚св4688100 0.0 1021277
17:00+2˚всв4791100 0.0 1020253
20:00+3˚всв599397 0.0 1020323
10 декабря, чт
чт1023:00+4˚в51096100 0.0 1020300
02:00+4˚в61097100 0.0 1019339
05:00+5˚в61197100 0.1 1018343
08:00+7˚вюв61497100 0.5 1017484
11:00+10˚юв81592100 1.1 1017724
14:00+12˚юв101574100 1.8 1017829
17:00+10˚вюв91588100 0.4 1016602
20:00+9˚вюв91689100 0.4 1016574